Longville, MN

12:42 PM CDT on May 29, 2017 (GMT -0500)
Longville Municipal

Weather History for KXVG - January, 2013

Change the Weather History Date:

Tuesday, January 8, 2013

  Actual Average (KPWC) Record (KPWC)
Temperature  
Mean Temperature 15 °F -  
Max Temperature 30 °F 18 °F 51 °F (2003)
Min Temperature 0 °F 1 °F -31 °F (2014)
Degree Days  
Heating Degree Days 50    
Moisture  
Dew Point 14 °F    
Average Humidity 85    
Maximum Humidity 100    
Minimum Humidity 74    
Precipitation  
Precipitation 0.00 in - - ()
Sea Level Pressure  
Sea Level Pressure 29.78 in    
Wind  
Wind Speed 2 mph (South)    
Max Wind Speed 8 mph    
Max Gust Speed 17 mph    
Visibility 10 miles    
Events Snow    
Averages and records for this station are not official NWS values.
T = Trace of Precipitation, MM = Missing Value Source: NWS Daily Summary

Daily Weather History Graph

Daily Weather History Graph

Search for Another Location

Airport or City:

Trip Planner

Search our weather history database for the weather conditions in past years. The results will help you decide how hot, cold, wet, or windy it might be!

Date:

Astronomy

Jan. 08, 2013 Rise Set
Actual Time 8:01 AM CST 4:46 PM CST
Civil Twilight 7:26 AM CST 5:21 PM CST
Nautical Twilight 6:48 AM CST 5:59 PM CST
Astronomical Twilight 6:11 AM CST 6:36 PM CST
Moon 4:34 AM CST (1/8) 1:49 PM CST (1/8)
Length of Visible Light 9h 54m
Length of Day
8h 44m
Waning Crescent, 13% of the Moon is Illuminated
Jan 8
Waning Crescent
Jan 11
New
Jan 18
First Quarter
Jan 26
Full
Feb 3
Last Quarter

Hourly Weather History & Observations

Time (CST) Temp. Windchill Dew Point Humidity Pressure Visibility Wind Dir Wind Speed Gust Speed Precip Events Conditions
12:16 AM 12.2 °F - 10.4 °F 92% 29.88 in 10.0 mi Calm Calm - N/A   Clear
12:36 AM 10.4 °F - 10.4 °F 100% 29.88 in 10.0 mi Calm Calm - N/A   Clear
12:56 AM 10.4 °F - 8.6 °F 92% 29.88 in 10.0 mi Calm Calm - N/A   Clear
1:16 AM 8.6 °F - 6.8 °F 92% 29.87 in 10.0 mi Calm Calm - N/A   Clear
1:36 AM 6.8 °F - 5.0 °F 92% 29.89 in 10.0 mi Calm Calm - N/A   Clear
1:56 AM 6.8 °F - 3.2 °F 85% 29.89 in 10.0 mi Calm Calm - N/A   Clear
2:16 AM 6.8 °F - 3.2 °F 85% 29.88 in 10.0 mi Calm Calm - N/A   Clear
2:36 AM 6.8 °F - 3.2 °F 85% 29.88 in 10.0 mi Calm Calm - N/A   Clear
2:56 AM 5.0 °F - 3.2 °F 92% 29.89 in 10.0 mi Calm Calm - N/A   Clear
3:16 AM 3.2 °F - 1.4 °F 92% 29.88 in 10.0 mi Calm Calm - N/A   Clear
3:36 AM 3.2 °F - 1.4 °F 92% 29.88 in 10.0 mi Calm Calm - N/A   Clear
3:56 AM 3.2 °F - 1.4 °F 92% 29.87 in 10.0 mi Calm Calm - N/A   Clear
4:16 AM 3.2 °F - -0.4 °F 85% 29.88 in 10.0 mi Calm Calm - N/A   Clear
4:36 AM 1.4 °F - -0.4 °F 92% 29.87 in 10.0 mi Calm Calm - N/A   Clear
4:56 AM 1.4 °F - -0.4 °F 92% 29.88 in 10.0 mi Calm Calm - N/A   Clear
5:16 AM 1.4 °F - -2.2 °F 85% 29.88 in 10.0 mi Calm Calm - N/A   Clear
5:36 AM 1.4 °F - -2.2 °F 85% 29.87 in 10.0 mi Calm Calm - N/A   Clear
5:57 AM 1.4 °F - -2.2 °F 85% 29.88 in 10.0 mi Calm Calm - N/A   Clear
6:17 AM 1.4 °F - -2.2 °F 85% 29.86 in 10.0 mi Calm Calm - N/A   Clear
6:36 AM -0.4 °F - -2.2 °F 92% 29.86 in 10.0 mi Calm Calm - N/A   Clear
6:56 AM -0.4 °F - -4.0 °F 85% 29.87 in 10.0 mi Calm Calm - N/A   Clear
7:16 AM -0.4 °F - -2.2 °F 92% 29.87 in 10.0 mi Calm Calm - N/A   Clear
7:36 AM -0.4 °F - -2.2 °F 92% 29.86 in 10.0 mi Calm Calm - N/A   Clear
7:56 AM 1.4 °F -6.2 °F -2.2 °F 85% 29.88 in 10.0 mi SE 3.5 mph - N/A   Clear
8:16 AM 1.4 °F - -0.4 °F 92% 29.88 in 10.0 mi Calm Calm - N/A   Clear
8:36 AM 3.2 °F - 1.4 °F 92% 29.88 in 10.0 mi Calm Calm - N/A   Clear
8:56 AM 6.8 °F - 5.0 °F 92% 29.88 in 10.0 mi Calm Calm - N/A   Clear
9:16 AM 8.6 °F - 6.8 °F 92% 29.86 in 10.0 mi Calm Calm - N/A   Clear
9:36 AM 14.0 °F - 12.2 °F 93% 29.85 in 10.0 mi Calm Calm - N/A   Clear
9:56 AM 15.8 °F - 14.0 °F 93% 29.85 in 10.0 mi Calm Calm - N/A   Clear
10:16 AM 17.6 °F - 15.8 °F 93% 29.86 in 10.0 mi Calm Calm - N/A   Clear
10:36 AM 19.4 °F - 17.6 °F 93% 29.85 in 10.0 mi Calm Calm - N/A   Clear
11:16 AM 23.0 °F 18.4 °F 21.2 °F 93% 29.84 in 10.0 mi SSE 3.5 mph - N/A   Scattered Clouds
11:36 AM 24.8 °F 16.9 °F 23.0 °F 93% 29.83 in 10.0 mi South 6.9 mph - N/A   Clear
11:56 AM 26.6 °F 20.0 °F 23.0 °F 86% 29.82 in 10.0 mi SSE 5.8 mph - N/A   Clear
12:16 PM 26.6 °F 20.0 °F 21.2 °F 80% 29.79 in 5.0 mi SE 5.8 mph - N/A Snow Light Snow
12:36 PM 26.6 °F 20.0 °F 21.2 °F 80% 29.78 in 10.0 mi SE 5.8 mph - N/A   Scattered Clouds
12:56 PM 28.4 °F - 21.2 °F 74% 29.76 in 10.0 mi Calm Calm - N/A   Scattered Clouds
1:16 PM 28.4 °F - 21.2 °F 74% 29.74 in 10.0 mi Calm Calm - N/A   Scattered Clouds
1:36 PM 28.4 °F 23.3 °F 21.2 °F 74% 29.72 in 10.0 mi ESE 4.6 mph - N/A   Scattered Clouds
1:56 PM 28.4 °F 24.6 °F 21.2 °F 74% 29.70 in 10.0 mi ESE 3.5 mph - N/A   Clear
2:16 PM 28.4 °F 23.3 °F 21.2 °F 74% 29.68 in 10.0 mi ESE 4.6 mph - N/A   Scattered Clouds
2:36 PM 30.2 °F 24.3 °F 23.0 °F 75% 29.66 in 10.0 mi ESE 5.8 mph - N/A   Mostly Cloudy
2:56 PM 30.2 °F 25.4 °F 23.0 °F 75% 29.67 in 10.0 mi SSE 4.6 mph - N/A   Scattered Clouds
3:16 PM 30.2 °F 25.4 °F 23.0 °F 75% 29.71 in 10.0 mi SSW 4.6 mph - N/A   Scattered Clouds
3:36 PM 30.2 °F 23.4 °F 23.0 °F 75% 29.68 in 10.0 mi SE 6.9 mph - N/A   Scattered Clouds
3:56 PM 30.2 °F 24.3 °F 23.0 °F 75% 29.67 in 10.0 mi SE 5.8 mph - N/A   Scattered Clouds
4:16 PM 30.2 °F 25.4 °F 23.0 °F 75% 29.66 in 10.0 mi SE 4.6 mph - N/A   Scattered Clouds
4:36 PM 30.2 °F 23.4 °F 24.8 °F 80% 29.66 in 10.0 mi SSE 6.9 mph - N/A   Scattered Clouds
4:56 PM 30.2 °F 24.3 °F 24.8 °F 80% 29.64 in 7.0 mi SE 5.8 mph - N/A Snow Light Snow
5:16 PM 30.2 °F 23.4 °F 24.8 °F 80% 29.66 in 10.0 mi SSE 6.9 mph - N/A   Scattered Clouds
5:36 PM 30.2 °F 23.4 °F 24.8 °F 80% 29.66 in 10.0 mi South 6.9 mph - N/A   Clear
5:56 PM 30.2 °F 22.6 °F 24.8 °F 80% 29.66 in 10.0 mi South 8.1 mph - N/A   Clear
6:36 PM 30.2 °F 22.6 °F 24.8 °F 80% 29.65 in 10.0 mi SSW 8.1 mph - N/A   Clear
6:56 PM 30.2 °F 24.3 °F 24.8 °F 80% 29.65 in 10.0 mi South 5.8 mph - N/A   Clear
7:16 PM 30.2 °F 23.4 °F 24.8 °F 80% 29.66 in 10.0 mi SSW 6.9 mph - N/A   Clear
7:36 PM 28.4 °F 22.2 °F 24.8 °F 86% 29.66 in 10.0 mi SSW 5.8 mph - N/A   Scattered Clouds
7:56 PM 30.2 °F 23.4 °F 24.8 °F 80% 29.66 in 10.0 mi SW 6.9 mph - N/A   Scattered Clouds
8:16 PM 30.2 °F 22.6 °F 24.8 °F 80% 29.67 in 10.0 mi WSW 8.1 mph - N/A   Scattered Clouds
8:36 PM 30.2 °F 23.4 °F 24.8 °F 80% 29.67 in 10.0 mi WSW 6.9 mph 17.3 mph N/A   Mostly Cloudy
8:56 PM 30.2 °F 23.4 °F 26.6 °F 86% 29.67 in 10.0 mi WSW 6.9 mph - N/A   Overcast
9:16 PM 30.2 °F 24.3 °F 26.6 °F 86% 29.66 in 10.0 mi SW 5.8 mph - N/A   Overcast
9:36 PM 28.4 °F 23.3 °F 24.8 °F 86% 29.67 in 10.0 mi WSW 4.6 mph - N/A   Scattered Clouds
9:56 PM 28.4 °F 22.2 °F 26.6 °F 93% 29.67 in 10.0 mi SW 5.8 mph - N/A   Mostly Cloudy
10:16 PM 28.4 °F 22.2 °F 24.8 °F 86% 29.68 in 10.0 mi SW 5.8 mph - N/A   Scattered Clouds
10:36 PM 26.6 °F 18.2 °F 24.8 °F 93% 29.69 in 10.0 mi SW 8.1 mph - N/A   Clear
10:56 PM 28.4 °F 20.4 °F 24.8 °F 86% 29.69 in 10.0 mi SW 8.1 mph - N/A   Clear
11:16 PM 28.4 °F 22.2 °F 24.8 °F 86% 29.70 in 10.0 mi WSW 5.8 mph - N/A   Clear
11:36 PM 26.6 °F 18.2 °F 24.8 °F 93% 29.72 in 10.0 mi SW 8.1 mph - N/A   Clear